Вернуться в каталог

STARLINK-2234

АктивенСвязьVLEO
NORAD 48580·PAYLOAD·🇺🇸 United States

Запущен May 15, 2021 с Cape Canaveral Space Force Station

Loading…

Ближайшие Пролёты (ближайшие 24 часа)

TLE

СвежийSource: CelesTrak SupGP

Эпоха: Sep 15, 2026, 01:24 UTC

1 48580C 21041AD  26258.05881944  .00035858  00000+0  11528-2 0  2580
2 48580  53.1584 299.7328 0001307  85.3748  57.0739 15.31693225    18

Отслеживайте STARLINK-2234 в реальном времени с AllMySat

Download on the App Store